Regional Weather Roundup
Issued by NWS

Home | Current Version | Previous Version | Graphics & Text | Print | Product List | Glossary On
Versions: 1 2 3 4 5 6 7 8 9 10 11 12 13 14 15 16 17 18 19 20 21 22 23 24 25 26 27 28 29 30 31 32 33 34 35 36 37 38 39 40 41 42 43 44 45 46 47 48 49 50
000
ASUS43 KMPX 300101
RWRMN
WEATHER ROUNDUP FOR MINNESOTA
NATIONAL WEATHER SERVICE TWIN CITIES/CHANHASSEN MN
800 PM CDT SAT AUG 29 2015


NOTE: "FAIR" INDICATES FEW OR NO CLOUDS BELOW 12,000 FEET WITH NO
SIGNIFICANT WEATHER AND/OR OBSTRUCTIONS TO VISIBILITY. N/A MEANS
CURRENT SKY AND/OR WEATHER CONDITIONS ARE NOT AVAILABLE.

MNZ060>063-068>070-300200-
   Twin Cities Metro

CITY           SKY/WX    TMP DP  RH WIND       PRES   REMARKS
TWIN CITIES    MOCLDY    72  63  73 S5        30.00F
ST PAUL        MOCLDY    69  64  84 SE5       30.01F
CRYSTAL        MOCLDY    71  62  73 S5        30.00S
BLAINE         MOCLDY    72  63  73 SE3       30.01S
LAKEVILLE      PTCLDY    64  64 100 CALM      30.01F
EDEN PRAIRIE   PTCLDY    70  63  78 S3        30.00F
SOUTH ST PAUL  MOCLDY    70  63  77 SE3       30.00F
LAKE ELMO      FAIR      66  63  88 SE5       30.02F
$$
MNZ001>005-007-008-013>017-022>024-027-028-300200-
   Northwest Minnesota

CITY           SKY/WX    TMP DP  RH WIND       PRES   REMARKS
BEMIDJI        MOCLDY    71  65  83 S7        29.92R
HALLOCK        CLEAR     75  70  83 S10       29.79F
ROSEAU         CLOUDY    73  68  83 S8        29.84F
WARROAD        CLOUDY    72  66  83 SE5       29.85F
THIEF RVR FALL MOCLDY   N/A N/A N/A S8        29.85F
CROOKSTON      MOCLDY    75  70  83 S8        29.85S
FOSSTON        CLOUDY    72  64  78 S8        29.90S
DETROIT LAKES  PTCLDY    70  63  78 S10       29.93S
MOORHEAD       MOCLDY    73  66  78 S15       29.88S
PARK RAPIDS    PTCLDY    71  61  70 S10       29.94S
MAHNOMEN       FAIR      72  65  79 S9        29.90R
$$
MNZ006-009>011-018-025>026-300200-
   North Central Minnesota

CITY           SKY/WX    TMP DP  RH WIND       PRES   REMARKS
BAUDETTE       CLOUDY    70  67  90 SE6       29.87S
FLAG ISLAND    CLOUDY    70  66  88 S10       29.84S
INTL FALLS     PTCLDY    67  64  90 SE5       29.91S
WASKISH        CLOUDY    72  66  83 S3        29.90R
BIG FORK       MOCLDY    70  64  83 S6        29.94S
LONGVILLE      MOCLDY    68  63  83 S8        29.95S
GRAND RAPIDS     N/A     68  61  77 S9        29.96F
CRANE LAKE     MOCLDY    64  63  94 SE1       29.95S
ORR            MOCLDY    66  63  88 SE2       29.92F
COOK           MOCLDY    68  64  88 S3        29.96S
WALKER         FAIR      69  63  81 S8        29.93F
$$
MNZ012-019>021-037-300200-
   Northeast Minnesota

CITY           SKY/WX    TMP DP  RH WIND       PRES   REMARKS
DULUTH         PTCLDY    69  62  78 SW8       29.99S
ELY            MOCLDY    66  61  82 CALM      29.98R
HIBBING        MOCLDY    69  63  81 VRB3      29.97S
EVELETH        MOCLDY    64  63  94 CALM      29.99R
DULUTH HARBOR  PTCLDY    72  66  83 SW9       29.96F
TWO HARBORS    MOCLDY    70  64  83 SW3       29.96S
SILVER BAY     MOCLDY    70  64  83 CALM      29.96S
GRAND MARAIS     N/A     54  51  90 W5        29.95S
G MARAIS ARPRT MOCLDY    61  57  88 CALM      30.01S
$$
MNZ029>031-032-039>041-046>048-054>057-064-300200-
   West Central Minnesota

CITY           SKY/WX    TMP DP  RH WIND       PRES   REMARKS
FERGUS FALLS   PTCLDY    70  63  78 S12       29.92S
WHEATON        CLEAR     70  63  78 SE9       29.93S
MORRIS         PTCLDY    70  66  88 SE8       29.94S
ALEXANDRIA     PTCLDY    68  63  84 S10       29.98S
ELBOW LAKE     FAIR      69  64  85 SE9       29.94S
WADENA         PTCLDY    68  61  77 S8        29.95S
GLENWOOD       PTCLDY    66  63  88 S8        29.98F
APPLETON       CLEAR     72  64  78 SE7       29.94S
BENSON         PTCLDY    70  63  78 S6        29.96S
ORTONVILLE     CLEAR     72  64  78 S6        29.93S
MADISON        PTCLDY    70  64  83 S7        29.95S
WILLMAR        FAIR      68  64  88 SE6       30.00R
$$
MNZ033>034-036-042>043-049>051-058-059-300200-
   Central Minnesota

CITY           SKY/WX    TMP DP  RH WIND       PRES   REMARKS
ST CLOUD       CLOUDY    64  63  96 SE6       30.00S
SAUK CENTRE    FAIR      66  63  89 SE7       29.99S
PAYNESVILLE    PTCLDY    68  62  83 E7        29.99F
AITKIN         PTCLDY    68  61  77 S5        29.97S
PINE RIVER     PTCLDY    66  63  88 S7        29.98F
BRAINERD       PTCLDY    66  62  87 S7        29.97F
STAPLES        PTCLDY    66  61  82 S7        29.97S
LONG PRAIRIE   FAIR      64  63  94 SE7       29.98S
LITTLE FALLS   MOCLDY    64  61  88 SE3       29.99S
LITCHFIELD     PTCLDY    68  64  88 SE3       30.01S
BUFFALO        MOCLDY    67  62  82 CALM      30.01F
MAPLE LAKE     MOCLDY    67  64  90 CALM      30.02S
$$
MNZ037-044-045-052-053-300200-
   East Central Minnesota

CITY           SKY/WX    TMP DP  RH WIND       PRES   REMARKS
PRINCETON      MOCLDY    68  63  83 CALM      30.01S
MORA           PTCLDY    64  61  88 S3        30.02S
CAMBRIDGE      MOCLDY    70  59  68 CALM      30.00R
RUSH CITY      PTCLDY    65  61  86 CALM      30.01S
MOOSE LAKE     PTCLDY    66  61  82 S3        29.97F
HINCKLEY       FAIR      68  64  88 S3        30.00S
CLOQUET        PTCLDY    66  61  82 S6        29.98F
MCGREGOR       PTCLDY    68  63  83 S6        29.99S
$$
MNZ071>073-080-081-089-090-097-098-300200-
   Southwest Minnesota

CITY           SKY/WX    TMP DP  RH WIND       PRES   REMARKS
MONTEVIDEO     PTCLDY    72  64  78 S8        29.97F
GRANITE FALLS  MOCLDY    69  65  86 SE8       29.99S
CANBY          PTCLDY    71  63  76 SE5       29.97S
MARSHALL       MOCLDY    72  61  68 S8        30.00S
REDWOOD FALLS  MOCLDY    68  65  90 SE8       29.99S
OLIVIA         PTCLDY    68  63  83 SE6       29.99S
PIPESTONE      CLEAR     68  64  88 S6        30.01S
WINDOM         MOCLDY    70  64  83 S6        30.02S
WORTHINGTON    PTCLDY    66  61  82 S8        30.02F
JACKSON        MOCLDY    68  64  88 S6        30.03F
TRACY          MOCLDY    71  67  84 S3        30.00S
SLAYTON        PTCLDY    67  66  95 CALM      30.02S
$$
MNZ065>067-074>077-082>085-091>093-300200-
   South Central Minnesota

CITY           SKY/WX    TMP DP  RH WIND       PRES   REMARKS
MANKATO        PTCLDY    66  61  82 S6        30.01F
NEW ULM        MOCLDY    66  64  94 SE7       30.00F
ST JAMES       MOCLDY    66  64  94 SE7       30.02F
FAIRMONT       MOCLDY    64  57  77 S6        30.03S
GLENCOE        MOCLDY    68  65  91 CALM      30.01R
FARIBAULT      CLEAR     66  64  94 CALM      30.03F
OWATONNA       PTCLDY    66  63  88 CALM      30.03F
WASECA         CLEAR     63  61  94 CALM      30.04F
ALBERT LEA     CLEAR     66  64  94 CALM      30.04S
$$
MNZ078>079-086>088-094>096-300200-
   Southeast Minnesota

CITY           SKY/WX    TMP DP  RH WIND       PRES   REMARKS
ROCHESTER      PTCLDY    65  63  93 SE7       30.05S
RED WING       PTCLDY    66  63  88 CALM      30.02R
STANTON        PTCLDY    69  65  86 CALM      30.00F
DODGE CENTER   PTCLDY    66  64  94 CALM      30.05S
WINONA         MOCLDY    70  63  78 CALM      30.04S
AUSTIN         PTCLDY    70  64  83 CALM      30.04S
PRESTON        MOCLDY    66  61  83 CALM      30.06S
$$
ABBREVIATIONS USED IN REMARKS
   TC - TEMPERATURES IN CELSIUS
  WCI - WIND CHILL INDEX
   HX - HEAT INDEX
  VSB - VISIBILITY
$$



USA.gov is the U.S. government's official web portal to all federal, state and local government web resources and services.